Location: Hope
(40.9110°N, 74.9680°W)
Time: 06:18:18
(UTC-04:00)

Envisat - Visible Passes

Search period start: 23 March 2019 00:00
Search period end: 02 April 2019 00:00
Orbit: 764 x 766 km, 98.2° (Epoch: 22 March)

Date Brightness Start Highest point End Pass type
(mag) Time Alt. Az. Time Alt. Az. Time Alt. Az.
23 Mar 5.6 20:42:49 10° SW 20:46:38 21° W 20:50:29 10° NW visible
24 Mar 4.1 20:04:47 10° S 20:09:39 47° W 20:14:34 10° NNW visible
25 Mar 6.1 21:10:40 10° WSW 21:12:27 12° W 21:14:14 10° WNW visible
26 Mar 5.2 20:31:04 10° SSW 20:35:20 27° W 20:39:37 10° NW visible
27 Mar 3.7 19:53:25 10° S 19:58:24 60° W 20:03:27 10° NNW visible
28 Mar 5.9 20:58:11 10° SW 21:01:06 15° W 21:04:01 10° NW visible
29 Mar 4.8 20:19:28 10° SSW 20:24:02 34° W 20:28:39 10° NNW visible
31 Mar 5.7 20:46:10 10° SW 20:49:46 19° W 20:53:24 10° NW visible
01 Apr 4.4 20:07:57 10° S 20:12:46 43° W 20:17:36 10° NNW visible
